Theta_e
305 305 305 306 306 307 308 310 311 311 312 312 311 312 313 312 311 311 311 310 309 310 308 306 305 305 305 306 306 306 302 303 306 305 307 305 306 307 307 307 307 309 309 309 309
305 305 306 306 306 307 307 308 309 310 311 311 311 311 310 311 310 311 312 311 310 310 309 306 305 305 306 306 306 304 301 304 304 305 305 305 305 305 306 305 306 307 307 308 308
310 305 306 306 306 306 307 307 308 308 309 310 311 311 311 309 308 311 312 310 310 309 306 306 306 305 306 306 305 302 302 302 306 306 306 305 305 306 305 304 306 306 306 307 307
317 314 306 306 307 307 307 308 308 308 308 309 311 312 311 308 308 311 311 310 310 305 305 306 306 306 305 304 306 305 304 305 305 306 306 305 305 305 305 306 306 306 305 305 306
313 315 315 307 308 309 309 310 311 311 311 311 311 311 309 306 308 310 310 307 305 305 305 305 305 306 305 305 306 304 305 306 306 306 306 306 305 304 306 308 306 306 306 306 305
311 312 313 313 308 310 312 313 312 313 314 313 313 310 306 306 310 310 310 307 306 306 305 305 306 306 306 306 305 305 305 305 306 306 305 304 304 304 307 308 307 306 305 305 305
300 307 311 315 309 310 312 313 313 313 313 313 312 309 305 309 309 309 309 308 306 305 305 305 306 306 305 304 305 305 304 303 305 305 304 304 304 301 308 306 306 306 305 305 305
305 302 310 315 310 311 313 313 313 314 311 310 311 307 306 309 309 309 308 306 305 305 305 305 305 305 305 304 304 304 304 306 307 303 303 304 306 305 306 305 305 306 306 306 307
306 311 315 315 313 311 314 314 313 314 310 310 308 305 307 307 307 307 306 305 304 303 304 304 303 303 304 303 306 305 307 305 306 304 303 303 305 304 305 304 304 305 304 305 305
305 310 314 315 314 313 314 314 315 314 311 308 305 305 306 305 306 305 305 304 302 303 303 302 303 302 302 305 309 308 306 306 308 304 304 303 301 301 304 302 302 301 301 302 302
305 307 309 310 312 312 312 314 311 310 308 311 308 307 306 305 304 303 303 303 304 303 304 303 303 305 306 304 306 306 306 307 305 302 304 302 301 300 300 299 299 298 299 299 299
304 306 306 307 306 308 307 310 312 311 310 312 311 308 305 305 302 302 303 303 303 304 303 303 305 306 305 304 306 305 305 305 303 302 303 302 302 301 299 298 298 298 298 299 299
303 304 304 304 305 305 305 307 309 308 309 311 310 310 309 305 304 302 303 303 303 305 304 306 307 305 305 305 305 304 304 304 305 302 301 301 301 300 299 298 297 297 297 298 298
302 300 300 302 303 304 305 306 307 308 309 310 309 310 308 304 304 304 302 304 303 306 304 306 304 304 304 304 304 306 303 302 302 301 305 300 302 301 299 298 298 298 297 297 297
299 299 299 299 297 300 302 305 306 307 312 308 307 305 304 306 304 302 302 304 304 304 304 305 303 303 304 304 303 304 301 301 301 299 296 301 296 300 298 299 297 296 297 297 297
299 298 297 298 296 295 301 304 305 305 309 305 300 300 302 301 300 299 301 302 303 303 302 303 301 303 303 301 302 301 302 302 300 297 297 298 300 302 298 297 298 296 297 297 297
299 298 297 296 296 297 303 303 305 307 305 301 301 300 303 302 300 300 301 303 305 306 306 303 303 301 301 302 302 302 304 301 298 296 301 298 300 302 298 295 295 295 297 297 296
298 298 297 296 294 298 301 303 304 307 305 300 299 301 303 302 301 301 302 304 303 304 305 307 305 302 302 302 303 303 303 304 300 298 300 299 298 302 293 293 295 297 297 297 296
299 297 296 295 294 296 300 303 304 305 305 300 300 302 303 302 302 301 301 303 303 303 307 305 305 300 300 300 301 303 304 299 296 290 297 296 298 298 296 292 292 296 296 296 296
297 296 295 294 298 298 301 303 304 303 304 301 302 300 302 303 304 302 301 301 302 303 303 303 302 301 299 299 299 301 299 303 296 298 299 295 295 299 294 291 290 290 295 295 295
295 294 295 298 298 299 301 299 303 303 303 303 305 303 302 304 305 303 304 303 303 303 303 300 300 301 300 299 301 300 300 300 301 295 293 292 296 289 292 289 290 289 295 295 295
294 295 296 299 299 299 300 300 302 303 302 303 304 305 303 303 305 304 306 302 302 302 303 301 298 301 297 293 296 296 296 299 300 296 294 290 296 282 283 286 291 294 295 295 295
294 294 297 300 299 298 299 301 302 302 302 303 304 304 301 303 305 305 303 301 301 302 303 300 301 300 301 299 298 298 297 295 294 291 296 298 297 281 280 283 292 294 295 295 294
295 294 297 298 298 297 298 296 302 299 302 302 304 301 301 302 301 302 303 302 300 301 301 301 299 297 302 299 297 299 300 297 296 297 293 293 290 286 289 286 289 294 295 295 294
294 296 296 297 297 298 298 295 299 301 299 299 302 302 302 302 300 301 301 301 301 301 299 298 299 293 293 292 292 291 293 298 299 292 299 292 291 288 288 289 289 295 294 294 294
295 295 296 296 297 297 297 298 300 300 301 302 300 302 300 299 299 297 301 301 301 300 299 296 297 293 295 290 286 297 296 292 298 298 289 278 289 285 286 289 291 294 293 292 292
294 296 296 295 295 297 296 297 299 299 300 301 301 300 299 298 297 297 299 299 299 299 298 296 293 294 293 290 291 293 292 295 292 290 297 297 294 278 282 278 290 291 289 290 290
Wind_Speed
17 16 15 15 14 13 12 12 11 10 10 11 11 11 12 13 14 15 16 14 12 11 7 6 7 9 11 9 6 5 3 3 5 6 4 3 3 3 3 4 3 5 8 5 4
18 19 18 17 17 16 16 14 13 12 12 12 11 12 12 14 16 21 17 14 13 11 9 8 10 10 7 8 6 5 4 9 4 2 3 1 1 5 4 2 4 12 14 11 10
20 20 20 21 20 18 17 16 14 13 13 13 13 12 12 12 15 13 14 20 13 11 10 10 10 10 5 6 7 6 6 4 4 4 2 2 3 3 5 3 9 7 7 10 12
25 23 23 21 22 21 19 16 15 14 13 12 13 12 11 9 6 4 5 12 13 11 11 11 9 6 4 5 7 3 10 7 3 4 2 3 2 4 14 13 9 5 5 8 12
26 27 25 25 23 24 21 17 15 14 14 13 12 12 10 9 15 14 6 9 11 11 11 12 12 7 5 4 3 3 3 5 9 8 10 10 11 8 20 24 19 18 22 22 18
29 29 29 26 24 23 19 18 17 15 15 13 12 13 11 7 13 12 13 13 13 12 12 14 7 9 4 4 6 1 4 9 10 11 9 5 4 4 7 6 9 6 6 7 14
32 32 31 29 25 22 20 21 18 17 15 14 13 13 15 22 11 11 13 14 13 13 13 15 12 9 5 2 3 1 5 6 7 3 6 4 6 8 20 9 4 3 6 11 11
28 29 30 28 26 23 23 22 19 17 15 13 13 13 11 14 19 23 14 14 14 13 13 12 11 8 4 1 2 1 2 3 0 5 2 4 7 4 1 3 6 13 22 19 16
25 21 20 25 26 25 26 24 21 18 12 11 11 11 9 11 21 18 18 15 14 12 11 9 9 5 4 4 3 2 4 5 6 2 3 3 5 4 3 14 25 27 23 21 19
26 18 23 26 27 26 29 26 30 23 14 9 8 5 16 13 13 19 18 14 11 13 9 7 5 3 1 4 6 7 5 5 5 1 0 3 9 9 19 20 19 17 14 11 11
23 18 13 9 21 25 22 26 12 8 21 19 13 9 4 12 10 16 20 17 11 9 6 6 4 10 16 8 2 5 5 5 2 1 2 6 7 10 11 6 6 5 5 5 4
19 20 11 12 10 10 13 14 13 6 9 39 36 22 10 14 9 15 21 15 10 6 7 3 12 10 4 6 5 3 4 5 2 2 0 4 11 7 1 1 2 2 2 2 2
10 10 12 15 10 14 14 20 23 14 6 9 42 34 28 24 10 24 28 13 5 7 12 7 3 7 7 5 7 5 5 4 3 3 1 5 7 3 2 2 2 1 0 0 1
11 20 21 15 13 7 13 15 16 15 4 5 9 13 24 17 6 19 30 10 4 13 7 8 3 7 6 6 6 5 6 5 5 3 4 2 5 5 5 5 4 5 2 1 1
21 11 17 18 20 17 13 13 8 10 6 4 7 8 17 17 16 13 30 16 7 7 7 7 8 6 4 4 6 4 5 5 4 4 4 1 2 6 3 5 6 7 7 4 4
22 24 24 26 24 20 14 10 7 2 7 5 4 4 8 5 4 9 12 9 5 3 2 0 1 3 4 4 3 9 6 6 4 3 1 4 4 4 5 6 4 5 8 5 5
26 27 27 28 25 15 10 7 4 6 2 5 6 7 9 5 4 4 14 10 8 7 7 2 1 1 4 7 4 3 5 2 3 2 5 1 3 8 5 5 5 5 2 2 4
25 23 29 33 26 18 11 3 8 4 6 3 2 7 7 7 3 6 14 9 9 3 5 8 4 7 3 3 6 6 5 5 7 4 3 1 6 6 6 2 4 2 0 4 7
22 22 33 30 19 21 13 7 5 5 1 7 2 4 5 7 4 8 9 5 13 14 7 7 4 3 3 2 1 6 4 3 7 1 3 3 6 6 5 1 1 2 1 3 7
15 18 30 16 9 23 7 11 7 5 2 1 5 6 9 12 7 12 12 7 8 15 3 6 5 2 2 1 3 2 4 3 2 3 4 4 5 5 5 6 3 1 1 3 6
16 5 7 7 14 16 7 6 5 7 5 5 2 5 6 7 8 8 6 2 4 7 7 5 4 3 5 5 7 3 2 2 3 3 5 1 6 6 9 8 8 6 4 4 4
6 3 4 14 7 4 3 5 3 5 4 4 4 5 8 8 9 8 9 2 5 7 9 4 4 4 3 3 1 1 4 4 4 5 1 3 6 2 4 6 8 5 4 4 3
5 6 6 19 4 6 3 3 4 5 5 6 6 4 1 4 4 7 5 3 2 3 6 6 3 4 2 0 1 4 5 3 4 3 7 6 5 3 3 4 7 8 6 6 5
4 2 6 12 10 4 8 6 4 4 3 5 3 3 1 2 2 5 3 2 1 4 7 6 3 4 6 3 3 6 7 8 5 4 5 6 4 4 7 7 7 7 7 8 8
12 3 4 3 4 7 3 4 5 6 4 5 3 2 5 2 2 3 3 3 3 6 3 3 3 3 1 3 2 3 4 13 13 5 8 4 9 6 9 10 15 8 5 7 10
8 4 4 2 1 5 7 2 4 5 3 2 1 7 3 3 4 7 6 4 3 2 3 3 3 2 2 3 4 3 5 6 12 9 7 3 7 8 3 6 6 7 7 8 9
15 8 1 1 1 2 3 6 6 6 3 4 7 4 1 2 2 2 4 7 8 6 3 4 5 3 3 1 1 6 11 16 6 5 10 11 9 4 1 3 7 6 4 3 6
Wind_Direction
307 302 298 295 292 288 283 282 278 273 274 274 277 272 269 270 271 261 259 250 243 235 232 216 196 185 176 178 169 150 75 222 246 169 242 357 18 337 308 273 258 239 262 254 235
305 302 296 290 288 288 287 282 281 279 274 277 276 277 275 274 273 265 256 249 236 235 227 196 185 179 178 180 187 143 156 217 216 228 212 255 328 322 311 270 272 269 256 260 222
304 299 293 289 284 280 278 280 278 279 280 278 280 278 277 281 290 269 253 235 233 235 207 197 187 177 182 180 196 176 202 215 244 237 249 258 249 226 262 268 246 267 287 242 220
297 295 290 284 282 278 275 274 276 276 272 272 276 277 271 257 244 300 232 207 221 204 195 192 190 180 184 201 198 192 236 222 228 194 249 246 263 246 242 252 275 252 253 276 250
292 290 284 282 277 277 274 275 269 270 272 271 271 266 262 249 244 267 249 199 192 197 205 204 199 189 188 203 190 249 268 242 252 260 271 262 250 252 269 280 281 271 265 266 263
282 284 281 273 273 272 271 273 274 272 270 265 258 260 242 231 254 249 227 215 210 215 214 208 220 217 221 212 174 258 274 278 282 266 268 225 245 183 277 286 300 297 300 288 271
280 275 275 267 264 261 260 265 278 281 272 265 256 246 240 249 252 241 230 222 222 219 214 215 217 203 194 236 227 282 313 319 248 233 214 176 281 230 264 293 334 57 13 345 304
294 278 265 255 256 256 253 262 270 274 272 260 249 239 245 252 245 241 231 217 213 215 216 217 213 218 221 208 36 82 53 328 253 142 208 145 266 276 248 287 297 310 318 313 291
312 283 270 261 255 251 253 257 260 261 264 251 235 223 254 235 228 224 218 215 205 204 203 201 185 193 161 122 1 359 231 207 312 204 138 164 266 275 54 325 313 313 312 305 295
318 303 261 248 252 245 250 252 257 246 229 224 218 235 234 223 221 208 201 199 180 179 169 176 169 136 100 149 212 194 214 237 229 344 69 225 260 284 304 317 306 304 308 309 302
305 309 294 255 246 246 239 234 242 220 199 199 206 212 283 201 189 194 192 179 161 168 172 195 167 204 206 199 135 139 181 201 221 51 287 247 268 280 318 2 358 359 4 4 7
294 291 304 290 293 272 256 217 225 239 245 223 229 227 242 199 175 186 181 172 174 182 137 128 233 221 167 192 199 180 188 234 273 111 310 323 282 268 276 301 311 318 4 18 71
277 284 306 297 305 282 271 257 243 270 247 225 219 220 217 209 206 189 184 188 171 171 190 186 232 172 157 165 173 204 192 184 199 333 114 334 287 211 233 196 237 243 262 241 231
275 317 335 315 305 306 298 274 264 262 246 211 200 226 210 188 245 203 191 168 204 205 160 242 208 156 157 190 148 193 175 128 119 88 235 8 280 268 203 227 233 239 223 167 83
312 324 318 307 309 295 282 288 293 216 249 133 158 185 185 170 136 184 184 180 192 183 150 217 177 164 160 202 151 211 115 117 109 95 48 276 77 269 128 243 236 216 208 212 298
286 297 291 290 298 287 270 278 271 244 254 150 136 169 162 163 131 122 160 150 118 83 314 19 70 136 155 69 98 136 84 61 57 87 337 226 152 256 193 203 186 183 202 274 301
273 286 293 291 286 276 267 258 243 223 115 201 182 161 182 173 138 166 172 174 169 156 187 148 119 39 131 92 30 85 119 17 346 15 221 250 153 255 230 208 181 180 232 327 313
257 274 280 282 280 228 244 160 248 263 194 93 117 140 182 150 207 162 168 191 228 111 139 167 210 176 174 189 177 185 163 168 205 195 246 47 231 251 213 167 171 186 346 303 309
251 260 278 284 261 216 234 221 213 224 205 135 124 151 208 206 134 166 195 212 198 197 166 165 189 93 79 135 139 177 194 135 103 53 47 233 287 285 155 318 194 139 154 330 331
252 278 279 286 222 196 220 239 212 188 133 150 210 181 193 180 164 190 177 203 196 190 173 184 113 182 133 119 42 144 160 97 10 154 240 280 279 241 224 222 248 348 271 323 330
249 272 270 196 185 201 222 229 234 206 156 183 228 208 216 185 167 188 212 248 152 160 139 143 105 115 140 206 168 140 184 87 117 133 166 229 258 214 205 179 176 214 226 268 317
223 228 218 185 190 208 222 197 245 193 163 154 245 250 186 171 181 188 221 303 163 153 156 174 112 135 190 245 194 98 188 164 140 210 170 154 271 256 203 173 167 205 237 232 285
217 248 235 202 214 211 239 262 250 205 188 203 211 208 302 169 152 148 170 13 135 83 162 176 143 116 61 25 172 213 191 132 103 87 194 148 257 352 325 287 229 240 249 244 248
209 243 208 218 241 186 209 243 253 228 245 194 192 139 227 92 10 130 142 119 65 115 130 112 145 160 181 168 125 192 179 171 142 160 165 227 271 281 249 240 242 254 252 241 243
186 250 201 197 227 229 241 213 209 229 235 221 143 253 150 178 64 100 98 106 78 145 67 95 134 99 75 85 87 172 176 185 204 182 189 239 202 229 220 223 229 252 237 258 259
192 203 198 291 271 195 231 239 228 229 216 300 240 142 164 157 200 189 130 176 180 111 96 22 111 94 40 33 45 252 202 222 232 232 269 124 274 216 199 188 205 208 258 266 264
205 182 183 254 211 163 219 232 236 149 235 260 177 133 141 230 214 109 97 141 151 136 115 126 135 117 242 10 1 300 215 206 199 200 207 219 229 174 219 208 199 227 250 246 292